Time,TemperatureF,DewpointF,PressureIn,WindDirection,WindDirectionDegrees,WindSpeedMPH,WindSpeedGustMPH,Humidity,HourlyPrecipIn,Conditions,Clouds,dailyrainin,SoftwareType,DateUTC
2013-05-21 00:10:00,61.0,51.5,29.57,WSW,247,2.7,-999.0,71,-99.99,,,0.00,Acu-Link.com,2013-05-21 05:10:00,
2013-05-21 00:25:00,60.3,50.9,29.58,SW,225,2.7,-999.0,71,-99.99,,,0.00,Acu-Link.com,2013-05-21 05:25:00,
2013-05-21 00:40:00,60.1,51.4,29.58,SSW,202,8.3,-999.0,73,-99.99,,,0.00,Acu-Link.com,2013-05-21 05:40:00,
2013-05-21 00:56:00,59.9,52.3,29.58,West,270,3.2,-999.0,76,-99.99,,,0.00,Acu-Link.com,2013-05-21 05:56:00,
2013-05-21 01:11:00,59.0,52.8,29.58,SSW,202,4.7,-999.0,80,-99.99,,,0.00,Acu-Link.com,2013-05-21 06:11:00,
2013-05-21 01:26:00,58.8,54.0,29.59,SW,225,4.2,-999.0,84,-99.99,,,0.00,Acu-Link.com,2013-05-21 06:26:00,
2013-05-21 01:41:00,58.6,54.1,29.60,SW,225,3.7,-999.0,85,-99.99,,,0.00,Acu-Link.com,2013-05-21 06:41:00,
2013-05-21 01:56:00,59.2,54.4,29.59,SW,225,2.2,-999.0,84,-99.99,,,0.00,Acu-Link.com,2013-05-21 06:56:00,
2013-05-21 02:12:00,59.5,54.7,29.58,SW,225,3.7,-999.0,84,-99.99,,,0.00,Acu-Link.com,2013-05-21 07:12:00,
2013-05-21 02:27:00,59.4,54.9,29.58,SW,225,4.7,-999.0,85,-99.99,,,0.00,Acu-Link.com,2013-05-21 07:27:00,
2013-05-21 02:42:00,59.4,55.2,29.59,West,270,5.3,-999.0,86,-99.99,,,0.00,Acu-Link.com,2013-05-21 07:42:00,
2013-05-21 02:57:00,59.4,55.2,29.59,West,270,3.2,-999.0,86,-99.99,,,0.00,Acu-Link.com,2013-05-21 07:57:00,
2013-05-21 03:13:00,59.5,55.6,29.59,ESE,112,1.7,-999.0,87,-99.99,,,0.00,Acu-Link.com,2013-05-21 08:13:00,
2013-05-21 03:29:00,59.5,55.6,29.59,SSW,202,2.7,-999.0,87,-99.99,,,0.00,Acu-Link.com,2013-05-21 08:29:00,
2013-05-21 03:44:00,59.5,55.3,29.60,SW,225,2.7,-999.0,86,-99.99,,,0.00,Acu-Link.com,2013-05-21 08:44:00,
2013-05-21 03:59:00,59.2,55.0,29.60,NE,45,4.2,-999.0,86,-99.99,,,0.00,Acu-Link.com,2013-05-21 08:59:00,
2013-05-21 04:14:00,58.5,54.3,29.59,WSW,247,2.7,-999.0,86,-99.99,,,0.00,Acu-Link.com,2013-05-21 09:14:00,
2013-05-21 04:29:00,57.2,53.7,29.60,WSW,247,1.7,-999.0,88,-99.99,,,0.00,Acu-Link.com,2013-05-21 09:29:00,
2013-05-21 04:44:00,56.5,53.6,29.60,WSW,247,1.7,-999.0,90,-99.99,,,0.00,Acu-Link.com,2013-05-21 09:44:00,
2013-05-21 05:00:00,56.1,53.5,29.61,WSW,247,3.2,-999.0,91,-99.99,,,0.00,Acu-Link.com,2013-05-21 10:00:00,
2013-05-21 05:15:00,55.8,53.2,29.61,SW,225,3.2,-999.0,91,-99.99,,,0.00,Acu-Link.com,2013-05-21 10:15:00,
2013-05-21 05:30:00,55.4,53.1,29.63,WSW,247,2.7,-999.0,92,-99.99,,,0.00,Acu-Link.com,2013-05-21 10:30:00,
2013-05-21 05:45:00,55.2,52.9,29.63,WSW,247,3.2,-999.0,92,-99.99,,,0.00,Acu-Link.com,2013-05-21 10:45:00,
2013-05-21 06:00:00,54.9,52.6,29.63,WSW,247,2.2,-999.0,92,-99.99,,,0.00,Acu-Link.com,2013-05-21 11:00:00,
2013-05-21 06:16:00,54.9,52.6,29.63,SSW,202,2.2,-999.0,92,-99.99,,,0.00,Acu-Link.com,2013-05-21 11:16:00,
2013-05-21 06:31:00,56.5,53.0,29.64,SW,225,2.7,-999.0,88,-99.99,,,0.00,Acu-Link.com,2013-05-21 11:31:00,
2013-05-21 06:46:00,58.3,52.8,29.65,West,270,2.7,-999.0,82,-99.99,,,0.00,Acu-Link.com,2013-05-21 11:46:00,
2013-05-21 07:01:00,59.9,52.3,29.65,SW,225,4.7,-999.0,76,-99.99,,,0.00,Acu-Link.com,2013-05-21 12:01:00,
2013-05-21 07:16:00,61.5,52.8,29.66,SW,225,6.3,-999.0,73,-99.99,,,0.00,Acu-Link.com,2013-05-21 12:16:00,
2013-05-21 07:32:00,63.0,53.8,29.67,East,90,2.2,-999.0,72,-99.99,,,0.00,Acu-Link.com,2013-05-21 12:32:00,
2013-05-21 07:47:00,63.1,52.4,29.67,WSW,247,2.2,-999.0,68,-99.99,,,0.00,Acu-Link.com,2013-05-21 12:47:00,
2013-05-21 08:02:00,65.8,52.4,29.67,WNW,292,2.7,-999.0,62,-99.99,,,0.00,Acu-Link.com,2013-05-21 13:02:00,
2013-05-21 08:17:00,65.3,51.5,29.66,SSE,157,2.7,-999.0,61,-99.99,,,0.00,Acu-Link.com,2013-05-21 13:17:00,
2013-05-21 08:33:00,67.8,52.0,29.67,NNE,22,4.7,-999.0,57,-99.99,,,0.00,Acu-Link.com,2013-05-21 13:33:00,
2013-05-21 08:48:00,66.6,51.8,29.66,SW,225,4.7,-999.0,59,-99.99,,,0.00,Acu-Link.com,2013-05-21 13:48:00,
2013-05-21 09:03:00,67.3,50.6,29.66,East,90,2.7,-999.0,55,-99.99,,,0.00,Acu-Link.com,2013-05-21 14:03:00,
2013-05-21 09:18:00,68.7,52.4,29.66,North,0,5.3,-999.0,56,-99.99,,,0.00,Acu-Link.com,2013-05-21 14:18:00,
2013-05-21 09:33:00,65.3,51.9,29.66,West,270,2.2,-999.0,62,-99.99,,,0.00,Acu-Link.com,2013-05-21 14:33:00,
2013-05-21 09:49:00,65.5,51.2,29.66,NNW,337,6.3,-999.0,60,-99.99,,,0.00,Acu-Link.com,2013-05-21 14:49:00,
2013-05-21 10:04:00,65.1,51.3,29.66,South,180,2.7,-999.0,61,-99.99,,,0.00,Acu-Link.com,2013-05-21 15:04:00,
2013-05-21 10:19:00,66.4,52.5,29.65,SSW,202,3.7,-999.0,61,-99.99,,,0.00,Acu-Link.com,2013-05-21 15:19:00,
2013-05-21 10:34:00,66.9,51.6,29.65,West,270,2.7,-999.0,58,-99.99,,,0.00,Acu-Link.com,2013-05-21 15:34:00,
2013-05-21 10:49:00,65.5,49.4,29.66,North,0,4.2,-999.0,56,-99.99,,,0.00,Acu-Link.com,2013-05-21 15:49:00,
2013-05-21 11:05:00,66.7,51.0,29.67,WSW,247,4.7,-999.0,57,-99.99,,,0.00,Acu-Link.com,2013-05-21 16:05:00,
2013-05-21 11:20:00,66.0,49.8,29.66,North,0,5.8,-999.0,56,-99.99,,,0.00,Acu-Link.com,2013-05-21 16:20:00,
2013-05-21 11:35:00,67.3,51.5,29.65,SW,225,2.7,-999.0,57,-99.99,,,0.00,Acu-Link.com,2013-05-21 16:35:00,
2013-05-21 11:50:00,65.1,49.5,29.66,WSW,247,6.3,-999.0,57,-99.99,,,0.00,Acu-Link.com,2013-05-21 16:50:00,
2013-05-21 12:05:00,66.4,49.2,29.67,WSW,247,4.7,-999.0,54,-99.99,,,0.00,Acu-Link.com,2013-05-21 17:05:00,
2013-05-21 12:21:00,66.0,48.9,29.67,SSW,202,3.7,-999.0,54,-99.99,,,0.00,Acu-Link.com,2013-05-21 17:21:00,
2013-05-21 12:36:00,64.9,49.3,29.67,WSW,247,7.3,-999.0,57,-99.99,,,0.00,Acu-Link.com,2013-05-21 17:36:00,
2013-05-21 12:51:00,67.8,50.5,29.67,SW,225,3.7,-999.0,54,-99.99,,,0.00,Acu-Link.com,2013-05-21 17:51:00,
2013-05-21 13:06:00,69.3,50.4,29.66,WSW,247,7.8,-999.0,51,-99.99,,,0.00,Acu-Link.com,2013-05-21 18:06:00,
2013-05-21 13:22:00,68.0,49.7,29.66,South,180,3.2,-999.0,52,-99.99,,,0.00,Acu-Link.com,2013-05-21 18:22:00,
2013-05-21 13:37:00,66.6,49.4,29.67,SSW,202,8.9,-999.0,54,-99.99,,,0.00,Acu-Link.com,2013-05-21 18:37:00,
2013-05-21 13:52:00,66.6,48.9,29.68,SE,135,7.8,-999.0,53,-99.99,,,0.00,Acu-Link.com,2013-05-21 18:52:00,
2013-05-21 14:07:00,66.7,48.5,29.67,SSW,202,4.2,-999.0,52,-99.99,,,0.00,Acu-Link.com,2013-05-21 19:07:00,
2013-05-21 14:22:00,67.8,50.0,29.67,SW,225,7.8,-999.0,53,-99.99,,,0.00,Acu-Link.com,2013-05-21 19:22:00,
2013-05-21 14:38:00,66.2,49.1,29.67,WSW,247,4.7,-999.0,54,-99.99,,,0.00,Acu-Link.com,2013-05-21 19:38:00,
2013-05-21 14:53:00,66.7,49.0,29.68,WNW,292,3.2,-999.0,53,-99.99,,,0.00,Acu-Link.com,2013-05-21 19:53:00,
2013-05-21 15:08:00,68.7,48.2,29.67,SW,225,6.3,-999.0,48,-99.99,,,0.00,Acu-Link.com,2013-05-21 20:08:00,
2013-05-21 15:23:00,69.1,50.7,29.67,North,0,4.7,-999.0,52,-99.99,,,0.00,Acu-Link.com,2013-05-21 20:23:00,
2013-05-21 15:39:00,69.6,50.1,29.67,SSW,202,5.8,-999.0,50,-99.99,,,0.00,Acu-Link.com,2013-05-21 20:39:00,
2013-05-21 15:54:00,69.1,50.7,29.67,NNW,337,1.7,-999.0,52,-99.99,,,0.00,Acu-Link.com,2013-05-21 20:54:00,
2013-05-21 16:09:00,69.1,49.7,29.66,East,90,3.2,-999.0,50,-99.99,,,0.00,Acu-Link.com,2013-05-21 21:09:00,
2013-05-21 16:24:00,70.0,50.5,29.65,West,270,3.2,-999.0,50,-99.99,,,0.00,Acu-Link.com,2013-05-21 21:24:00,
2013-05-21 16:40:00,68.2,49.4,29.64,NNE,22,2.7,-999.0,51,-99.99,,,0.00,Acu-Link.com,2013-05-21 21:40:00,
2013-05-21 16:55:00,69.3,49.9,29.64,West,270,4.7,-999.0,50,-99.99,,,0.00,Acu-Link.com,2013-05-21 21:55:00,
2013-05-21 17:10:00,69.3,50.4,29.64,ESE,112,2.2,-999.0,51,-99.99,,,0.00,Acu-Link.com,2013-05-21 22:10:00,
2013-05-21 17:25:00,67.3,49.1,29.65,South,180,3.2,-999.0,52,-99.99,,,0.00,Acu-Link.com,2013-05-21 22:25:00,
2013-05-21 17:40:00,67.6,48.8,29.65,SSE,157,3.7,-999.0,51,-99.99,,,0.00,Acu-Link.com,2013-05-21 22:40:00,
2013-05-21 17:56:00,66.9,48.7,29.64,WSW,247,6.3,-999.0,52,-99.99,,,0.00,Acu-Link.com,2013-05-21 22:56:00,
2013-05-21 18:11:00,67.8,49.0,29.64,NNW,337,2.7,-999.0,51,-99.99,,,0.00,Acu-Link.com,2013-05-21 23:11:00,
2013-05-21 18:26:00,71.1,49.8,29.63,ENE,67,2.7,-999.0,47,-99.99,,,0.00,Acu-Link.com,2013-05-21 23:26:00,
2013-05-21 18:41:00,68.7,49.8,29.64,South,180,2.7,-999.0,51,-99.99,,,0.00,Acu-Link.com,2013-05-21 23:41:00,
2013-05-21 18:56:00,68.0,49.2,29.64,NNW,337,4.2,-999.0,51,-99.99,,,0.00,Acu-Link.com,2013-05-21 23:56:00,
2013-05-21 19:12:00,65.7,49.1,29.64,WNW,292,2.7,-999.0,55,-99.99,,,0.00,Acu-Link.com,2013-05-22 00:12:00,
2013-05-21 19:27:00,64.8,49.2,29.64,WNW,292,4.2,-999.0,57,-99.99,,,0.00,Acu-Link.com,2013-05-22 00:27:00,
2013-05-21 19:42:00,63.7,48.6,29.64,SW,225,4.2,-999.0,58,-99.99,,,0.00,Acu-Link.com,2013-05-22 00:42:00,
2013-05-21 19:57:00,63.1,49.0,29.65,NNE,22,3.2,-999.0,60,-99.99,,,0.00,Acu-Link.com,2013-05-22 00:57:00,
2013-05-21 20:13:00,62.2,49.0,29.66,WNW,292,3.7,-999.0,62,-99.99,,,0.00,Acu-Link.com,2013-05-22 01:13:00,
2013-05-21 20:28:00,61.3,49.4,29.65,NNW,337,4.2,-999.0,65,-99.99,,,0.00,Acu-Link.com,2013-05-22 01:28:00,
2013-05-21 20:43:00,60.8,49.8,29.66,NW,315,4.2,-999.0,67,-99.99,,,0.00,Acu-Link.com,2013-05-22 01:43:00,
2013-05-21 20:58:00,60.8,49.8,29.65,NW,315,4.2,-999.0,67,-99.99,,,0.00,Acu-Link.com,2013-05-22 01:58:00,
2013-05-21 21:13:00,60.8,50.2,29.66,West,270,2.2,-999.0,68,-99.99,,,0.00,Acu-Link.com,2013-05-22 02:13:00,
2013-05-21 21:29:00,60.6,50.4,29.66,WNW,292,2.7,-999.0,69,-99.99,,,0.00,Acu-Link.com,2013-05-22 02:29:00,
2013-05-21 21:44:00,60.6,50.8,29.66,NW,315,4.7,-999.0,70,-99.99,,,0.00,Acu-Link.com,2013-05-22 02:44:00,
2013-05-21 21:59:00,60.3,50.5,29.67,West,270,4.7,-999.0,70,-99.99,,,0.00,Acu-Link.com,2013-05-22 02:59:00,
2013-05-21 22:14:00,60.1,50.3,29.67,WNW,292,4.2,-999.0,70,-99.99,,,0.00,Acu-Link.com,2013-05-22 03:14:00,
2013-05-21 22:29:00,59.9,50.1,29.67,WNW,292,6.8,-999.0,70,-99.99,,,0.00,Acu-Link.com,2013-05-22 03:29:00,
2013-05-21 22:45:00,59.5,50.1,29.67,WNW,292,3.7,-999.0,71,-99.99,,,0.00,Acu-Link.com,2013-05-22 03:45:00,
2013-05-21 23:00:00,58.6,50.0,29.68,NW,315,8.3,-999.0,73,-99.99,,,0.00,Acu-Link.com,2013-05-22 04:00:00,
2013-05-21 23:15:00,57.9,50.0,29.69,NW,315,6.8,-999.0,75,-99.99,,,0.00,Acu-Link.com,2013-05-22 04:15:00,
2013-05-21 23:30:00,57.4,49.9,29.69,WNW,292,5.8,-999.0,76,-99.99,,,0.00,Acu-Link.com,2013-05-22 04:30:00,
2013-05-21 23:45:00,57.0,50.2,29.69,NNW,337,7.8,-999.0,78,-99.99,,,0.00,Acu-Link.com,2013-05-22 04:45:00,